DateTime,DeltaTime,Roll,TargetAngle,Position,Power
2022-06-03 10:56:31.391,0,0.22,-2.52,7,42.9
2022-06-03 10:56:31.506,0.115006417036057,0.2,-2.7,1,33.26
2022-06-03 10:56:31.621,0.230002775788307,-0.01,-4.28,-3,15.74
2022-06-03 10:56:31.735,0.344003364443779,0.02,-3.13,-3,-3.76
2022-06-03 10:56:31.845,0.454000756144524,0.42,-0.02,0,-12.57
2022-06-03 10:56:31.960,0.56900717318058,0.29,-2.86,3,20.47
2022-06-03 10:56:32.075,0.684003531932831,0.22,-2.8,8,27.8
2022-06-03 10:56:32.189,0.798004120588303,0.24,-2.32,11,47.05
2022-06-03 10:56:32.305,0.914006307721138,0.02,-4.23,10,62.65
2022-06-03 10:56:32.419,1.02800689637661,-0.11,-4.31,7,51.62
2022-06-03 10:56:32.534,1.14300325512886,-0.46,-6.53,2,48.95
2022-06-03 10:56:32.648,1.25700384378433,-0.71,-7.05,-3,27.53
2022-06-03 10:56:32.764,1.37300603091717,-0.94,-7.81,-3,13
2022-06-03 10:56:32.878,1.48700661957264,-0.25,-1.21,-1,-13.99
2022-06-03 10:56:32.993,1.60200297832489,-0.12,-3.27,3,14.79
2022-06-03 10:56:33.107,1.71600356698036,-0.0499999999999999,-3.19,7,29.29
2022-06-03 10:56:33.222,1.83099992573261,0.01,-3,11,43.8
2022-06-03 10:56:33.336,1.94500051438808,0.2,-1.75,10,53.48
2022-06-03 10:56:33.451,2.06000693142414,-0.3,-6.64,8,66.55
2022-06-03 10:56:33.566,2.17500329017639,-0.19,-3.53,4,35.83
2022-06-03 10:56:33.681,2.28999964892864,0.14,-1.36,-2,12.74
2022-06-03 10:56:33.791,2.40000709891319,0.0700000000000001,-3.43,-3,1.66
2022-06-03 10:56:33.906,2.51500345766544,-0.0499999999999999,-3.98,0,4.71
2022-06-03 10:56:34.021,2.62999981641769,0.43,0.36,2,-1.32
2022-06-03 10:56:34.135,2.74400040507317,0.76,0.92,6,7.6
2022-06-03 10:56:34.250,2.85900682210922,0.77,-0.42,10,32.53
2022-06-03 10:56:34.364,2.97300741076469,0.44,-3.17,10,59.88
2022-06-03 10:56:34.479,3.08800376951694,0.46,-1.55,8,40.53
2022-06-03 10:56:34.594,3.2030001282692,-0.14,-6.42,5,58.06
2022-06-03 10:56:34.709,3.31800654530525,0.04,-2.42,0,18.23
2022-06-03 10:56:34.823,3.43200713396072,0.2,-1.89,-3,0.37
2022-06-03 10:56:34.938,3.54700349271297,-0.13,-5.22,-2,9.49
2022-06-03 10:56:35.053,3.66199985146523,0.44,0.75,0,-15.64
2022-06-03 10:56:35.167,3.7760004401207,0.63,-0.18,6,5.31
2022-06-03 10:56:35.282,3.89100685715675,0.47,-2.31,10,42.15
2022-06-03 10:56:35.397,4.006003215909,0.52,-1.21,12,46.78
2022-06-03 10:56:35.507,4.11600060760975,0.43,-2.1,10,55.83
2022-06-03 10:56:35.622,4.23100702464581,0.0800000000000001,-4.59,7,54.5
2022-06-03 10:56:35.736,4.34500761330128,0.45,0,2,15.88
2022-06-03 10:56:35.851,4.46000397205353,0.35,-2.53,-3,14.11
2022-06-03 10:56:35.966,4.57500033080578,0.41,-1.52,-2,-12.29
2022-06-03 10:56:36.080,4.68900091946125,0.85,1.73,0,-15.79
2022-06-03 10:56:36.196,4.80500310659409,1.31,3.57,3,-12.38
2022-06-03 10:56:36.310,4.91900369524956,1.53,3.29,8,3.5
2022-06-03 10:56:36.424,5.03300428390503,1.54,2.43,11,28.47
2022-06-03 10:56:36.538,5.1470048725605,1.43,1.43,10,41.29
2022-06-03 10:56:36.654,5.26300705969334,1.37,1.45,7,31.82
2022-06-03 10:56:36.769,5.37800341844559,0.96,-1.58,3,34.11
2022-06-03 10:56:36.884,5.49299977719784,0.92,-0.11,-3,7.47
2022-06-03 10:56:36.998,5.60700036585331,0.79,-0.97,-3,-10.77
2022-06-03 10:56:37.113,5.72200678288937,0.53,-2.48,-2,3.34
2022-06-03 10:56:37.223,5.83200417459011,0.93,1.83,2,-15.27
2022-06-03 10:56:37.338,5.94700053334236,1.22,2.44,7,5.71
2022-06-03 10:56:37.453,6.06200695037842,1.12,0.39,10,36.49
2022-06-03 10:56:37.567,6.17600753903389,1.32,2.4,11,32.78
2022-06-03 10:56:37.683,6.29199966788292,0.6,-4.21,9,70.27
2022-06-03 10:56:37.796,6.40500448644161,0.64,-0.84,5,29.3
2022-06-03 10:56:37.911,6.52000084519386,0.42,-2.7,0,26.52
2022-06-03 10:56:38.026,6.63500726222992,0.53,-0.89,-3,-4.05
2022-06-03 10:56:38.141,6.75000362098217,0.35,-2.83,-3,-0.33
2022-06-03 10:56:38.255,6.86400420963764,0.56,-0.35,1,-11.38
2022-06-03 10:56:38.370,6.97900056838989,0.4,-2.54,5,22.61
2022-06-03 10:56:38.485,7.09400698542595,0.28,-2.79,9,36.1
2022-06-03 10:56:38.599,7.20800757408142,0.34,-1.86,12,46.56
2022-06-03 10:56:38.714,7.32300393283367,0.0700000000000001,-4.23,10,66.97
2022-06-03 10:56:38.829,7.43800029158592,0.15,-2.44,7,40.95
2022-06-03 10:56:38.939,7.54800774157047,-0.18,-5.41,0,46.93
2022-06-03 10:56:39.054,7.66300410032272,-0.29,-4.88,-3,8.12
2022-06-03 10:56:39.169,7.77800045907497,-0.32,-4.64,-4,2.26
2022-06-03 10:56:39.283,7.89200104773045,-0.45,-5.61,0,6.5
2022-06-03 10:56:39.398,8.0070074647665,-0.26,-3.45,2,15.89
2022-06-03 10:56:39.513,8.12200382351875,-0.25,-4.2,8,27.55
2022-06-03 10:56:39.627,8.23600441217422,-0.0599999999999999,-2.69,10,46.98
2022-06-03 10:56:39.742,8.35100077092648,-0.1,-3.92,11,55.61
2022-06-03 10:56:39.857,8.46600718796253,-0.57,-7.5,8,74.3
2022-06-03 10:56:39.972,8.58100354671478,-0.61,-5.72,3,44.36
2022-06-03 10:56:40.086,8.69500413537025,-0.59,-5.47,-2,25.66
2022-06-03 10:56:40.201,8.81000049412251,-0.48,-4.65,-3,4.17
2022-06-03 10:56:40.315,8.92400108277798,-0.49,-5.15,-1,9.53
2022-06-03 10:56:40.430,9.03900749981403,-0.08,-1.86,2,3.98
2022-06-03 10:56:40.545,9.15400385856628,0.05,-2.59,6,24.38
2022-06-03 10:56:40.656,9.26500707864761,0.21,-1.85,10,36.23
2022-06-03 10:56:40.769,9.3780018389225,-0.09,-4.96,11,68.23
2022-06-03 10:56:40.885,9.49400402605534,-0.21,-4.66,9,58.75
2022-06-03 10:56:40.999,9.60800461471081,-0.5,-6.4,5,56.5
2022-06-03 10:56:41.114,9.72300097346306,-0.35,-3.98,0,24.72
2022-06-03 10:56:41.229,9.83800739049911,-0.36,-4.73,-3,12.72
2022-06-03 10:56:41.343,9.95200797915459,-0.13,-2.78,-3,-6.07
2022-06-03 10:56:41.458,10.0670043379068,-0.48,-6.68,0,19.95
2022-06-03 10:56:41.573,10.1820006966591,-0.17,-2.62,4,9.86
2022-06-03 10:56:41.688,10.2970071136951,-0.0499999999999999,-2.97,9,33.24
2022-06-03 10:56:41.802,10.4110077023506,0,-3.1,11,53.86
2022-06-03 10:56:41.917,10.5260040611029,-0.01,-3.43,10,56.33
2022-06-03 10:56:42.032,10.6410004198551,-0.82,-9.91,7,80.67
2022-06-03 10:56:42.146,10.7550010085106,-0.4,-2.96,2,23.72
2022-06-03 10:56:42.262,10.8710031956434,-0.08,-2.27,-3,9.19
2022-06-03 10:56:42.375,10.9840080142021,-0.33,-5.61,-3,8.76
2022-06-03 10:56:42.486,11.0950011759996,-0.03,-2.14,0,-6.17
2022-06-03 10:56:42.601,11.2100075930357,0.02,-3.05,3,17.82
2022-06-03 10:56:42.715,11.3240081816912,-0.34,-6.17,7,43.65
2022-06-03 10:56:42.831,11.4400003105402,-0.37,-4.83,10,49.73
2022-06-03 10:56:42.945,11.5540008991957,-0.21,-3.43,9,51.68
2022-06-03 10:56:43.059,11.6680014878511,-0.33,-5.05,8,52.69
2022-06-03 10:56:43.174,11.7830079048872,-0.83,-8.56,4,64.44
2022-06-03 10:56:43.289,11.8980042636395,-0.64,-4.89,-2,22.77
2022-06-03 10:56:43.403,12.0120048522949,-0.7,-6.16,-2,9.98
2022-06-03 10:56:43.518,12.1270012110472,-0.8,-6.76,-2,19.57
2022-06-03 10:56:43.633,12.2420076280832,-0.41,-3.09,2,0.85
2022-06-03 10:56:43.747,12.3560082167387,-0.14,-2.68,5,23.73
2022-06-03 10:56:43.862,12.471004575491,0.02,-2.55,10,33.78
2022-06-03 10:56:43.977,12.5860009342432,-0.31,-5.89,11,72.43
2022-06-03 10:56:44.092,12.7010073512793,-0.23,-3.87,9,53.55
2022-06-03 10:56:44.206,12.8150079399347,-0.75,-8.36,6,67.35
2022-06-03 10:56:44.317,12.9260011017323,-0.35,-2.87,1,21.61
2022-06-03 10:56:44.431,13.0400016903877,-0.4,-5.07,-3,19.54
2022-06-03 10:56:44.546,13.1550081074238,-0.56,-6.12,-2,9
2022-06-03 10:56:44.661,13.270004466176,-0.21,-2.56,1,0.38
2022-06-03 10:56:44.775,13.3840050548315,0.29,-0.1,4,6.48
2022-06-03 10:56:44.891,13.5000072419643,0.18,-3.11,9,35.92
2022-06-03 10:56:45.004,13.6130020022392,0.16,-2.84,11,52.37
2022-06-03 10:56:45.119,13.7280084192753,-0.02,-4.2,10,60.54
2022-06-03 10:56:45.234,13.8430047780275,-0.11,-4.12,7,50.7
2022-06-03 10:56:45.349,13.9580011367798,-0.22,-4.6,2,39.52
2022-06-03 10:56:45.464,14.0730075538158,-0.2,-4.02,-3,15.95
2022-06-03 10:56:45.579,14.1880039125681,-0.0399999999999999,-2.76,-2,-7.49
2022-06-03 10:56:45.693,14.3020045012236,0.16,-1.88,0,1.31
2022-06-03 10:56:45.808,14.4170008599758,0.71,1.68,3,-6.66
2022-06-03 10:56:45.922,14.5310014486313,0.65,-1.21,8,24.69
2022-06-03 10:56:46.032,14.6410088986158,0.59,-1.42,10,43.44
2022-06-03 10:56:46.147,14.7560052573681,0.66,-0.57,10,43.21
2022-06-03 10:56:46.262,14.8710016161203,0.25,-4.22,8,60.94
2022-06-03 10:56:46.377,14.9860080331564,0.18,-2.93,3,36
2022-06-03 10:56:46.492,15.1010043919086,-0.11,-4.98,-3,26.62
2022-06-03 10:56:46.606,15.2150049805641,-0.35,-5.73,-4,4.92
2022-06-03 10:56:46.721,15.3300013393164,-0.0399999999999999,-2.11,-2,-11.05
2022-06-03 10:56:46.837,15.4460035264492,0,-3.18,2,10.16
2022-06-03 10:56:46.951,15.5600041151047,-0.0599999999999999,-3.82,7,29.5
2022-06-03 10:56:47.065,15.6740047037601,0.03,-2.85,10,44.08
2022-06-03 10:56:47.179,15.7880052924156,0.16,-2.11,11,51.04
2022-06-03 10:56:47.294,15.9030016511679,-0.13,-5.12,9,64.78
2022-06-03 10:56:47.409,16.0180080682039,-0.01,-2.81,5,37.92
2022-06-03 10:56:47.524,16.1330044269562,-0.55,-7.75,0,49.37
2022-06-03 10:56:47.639,16.2480007857084,-0.34,-3.67,-2,1.64
2022-06-03 10:56:47.753,16.3620013743639,-0.33,-4.52,-4,8.12
2022-06-03 10:56:47.863,16.4720088243484,-0.23,-3.74,1,-4.03
2022-06-03 10:56:47.978,16.5870051831007,0.01,-2.25,4,17.16
2022-06-03 10:56:48.093,16.702001541853,0.14,-2.2,10,27.6
2022-06-03 10:56:48.208,16.817007958889,0.27,-1.8,11,52.31
2022-06-03 10:56:48.322,16.9310085475445,0.11,-3.63,10,57.73
2022-06-03 10:56:48.437,17.0460049062967,-0.0499999999999999,-4.22,6,51.97
2022-06-03 10:56:48.552,17.161001265049,0.0600000000000001,-2.65,1,24.6
2022-06-03 10:56:48.667,17.276007682085,-0.0599999999999999,-4.04,-3,14.66
2022-06-03 10:56:48.781,17.3900082707405,-0.1,-3.88,-2,-0.96
2022-06-03 10:56:48.895,17.504008859396,0.36,0.02,0,-9.94
2022-06-03 10:56:49.011,17.620000988245,0.8,1.57,4,-4.07
2022-06-03 10:56:49.125,17.7340015769005,0.62,-1.82,9,32.18
2022-06-03 10:56:49.239,17.848002165556,0.52,-1.87,11,48.27
2022-06-03 10:56:49.354,17.963008582592,0.54,-1.22,10,46.88
2022-06-03 10:56:49.469,18.0780049413443,0.14,-4.54,7,56.74
2022-06-03 10:56:49.584,18.1930013000965,0.54,0.37,1,14.08
2022-06-03 10:56:49.694,18.3030087500811,0.36,-2.74,-3,10.62
2022-06-03 10:56:49.809,18.4180051088333,0.44,-1.39,-3,-12.03
2022-06-03 10:56:49.924,18.5330014675856,0.61,-0.33,0,-10.46
2022-06-03 10:56:50.039,18.6480078846216,0.7,-0.38,3,5.98
2022-06-03 10:56:50.153,18.7620084732771,0.47,-2.59,7,28.05
2022-06-03 10:56:50.268,18.8770048320293,0.48,-1.47,10,36.17
2022-06-03 10:56:50.383,18.9920011907816,0.54,-1.12,11,46.4
2022-06-03 10:56:50.497,19.1060017794371,0.19,-4.16,8,61.25
2022-06-03 10:56:50.612,19.2210081964731,0.19,-2.59,3,33.13
2022-06-03 10:56:50.727,19.3360045552254,0.69,1.38,-2,-4.84
2022-06-03 10:56:50.842,19.4510009139776,0.49,-2.37,-4,0.84
2022-06-03 10:56:50.956,19.5650015026331,0.44,-1.9,-3,-9.86
2022-06-03 10:56:51.071,19.6800079196692,0.9,2.03,1,-21.44
2022-06-03 10:56:51.185,19.7940085083246,1.37,3.75,7,-6.66
2022-06-03 10:56:51.299,19.9079990386963,1.33,1.46,10,31.59
2022-06-03 10:56:51.411,20.0200080871582,1.21,0.62,11,40.39
2022-06-03 10:56:51.525,20.1340086758137,0.97,-0.81,10,48.4
2022-06-03 10:56:51.640,20.2490050345659,0.59,-2.8,5,48.57
2022-06-03 10:56:51.755,20.3640013933182,0.94,1.71,0,-0.32
2022-06-03 10:56:51.869,20.4780019819736,0.59,-2.68,-4,9.41
2022-06-03 10:56:51.985,20.5940041691065,0.65,-0.64,-1,-19.77
2022-06-03 10:56:52.098,20.7069989293814,0.96,1.54,0,-8.06
2022-06-03 10:56:52.214,20.8230011165142,1.11,1.44,5,-3.87
2022-06-03 10:56:52.328,20.9370017051697,1.02,0.03,10,26.65
2022-06-03 10:56:52.442,21.0510022938251,0.97,0.08,12,43.45
2022-06-03 10:56:52.558,21.167004480958,0.96,0.16,11,47.45
2022-06-03 10:56:52.673,21.2820008397102,0.51,-3.44,7,56.72
2022-06-03 10:56:52.787,21.3960014283657,0.47,-1.76,0,24.89
2022-06-03 10:56:52.902,21.5110078454018,1.05,3.06,-4,-25.99
2022-06-03 10:56:53.016,21.6250084340572,0.87,-0.91,-4,-10.93
2022-06-03 10:56:53.126,21.735005825758,0.85,-0.28,-2,-14.3
2022-06-03 10:56:53.241,21.8500021845102,1.03,1.25,4,-11.47
2022-06-03 10:56:53.356,21.9650086015463,1.41,3.59,9,5.93
2022-06-03 10:56:53.471,22.0800049602985,1.45,2.19,12,33.18
2022-06-03 10:56:53.585,22.194005548954,1.57,2.97,12,36.5
2022-06-03 10:56:53.701,22.3100077360868,1.02,-1.9,9,58.79
2022-06-03 10:56:53.815,22.4240083247423,0.88,-0.74,3,30.5
2022-06-03 10:56:53.929,22.5380089133978,1.02,1.1,-3,-2.36
2022-06-03 10:56:54.045,22.6540010422468,0.64,-2.62,-4,-3.35
2022-06-03 10:56:54.159,22.7680016309023,0.75,-0.05,-4,-18.22
2022-06-03 10:56:54.273,22.8820022195578,1.16,2.74,1,-27.87
2022-06-03 10:56:54.389,22.9980044066906,1.44,3.19,7,-2.05
2022-06-03 10:56:54.503,23.1120049953461,1.45,2.07,11,27.38
2022-06-03 10:56:54.617,23.2260055840015,1.28,0.67,10,45.52
2022-06-03 10:56:54.732,23.3410019427538,1.21,0.86,11,32.18
2022-06-03 10:56:54.842,23.4509993344545,0.73,-2.7,6,57.39
2022-06-03 10:56:54.957,23.5660057514906,1.08,2.22,0,0.96
2022-06-03 10:56:55.073,23.6820079386234,0.92,-0.66,-3,-1.33
2022-06-03 10:56:55.187,23.7960085272789,0.64,-2.21,-4,-4.42
2022-06-03 10:56:55.301,23.9099990576506,1.13,2.99,-1,-33.61
2022-06-03 10:56:55.416,24.0250054746866,0.9,-0.96,4,8.69
2022-06-03 10:56:55.530,24.1390060633421,1.02,0.94,10,15.06
2022-06-03 10:56:55.645,24.2540024220943,1.07,0.85,14,41.72
2022-06-03 10:56:55.760,24.3690088391304,1.24,2.03,11,48.68
2022-06-03 10:56:55.875,24.4840051978827,0.7,-3.13,8,54.99
2022-06-03 10:56:55.989,24.5980057865381,1.05,2.06,2,11.19
2022-06-03 10:56:56.104,24.7130021452904,1.01,0.26,-3,1.44
2022-06-03 10:56:56.219,24.8280085623264,1.12,1.27,-3,-22.94
2022-06-03 10:56:56.334,24.9430049210787,0.99,-0.25,-3,-7.85
2022-06-03 10:56:56.444,25.0530023127794,1.14,1.56,1,-19.13
2022-06-03 10:56:56.558,25.1670029014349,1.02,-0.06,7,10.91
2022-06-03 10:56:56.673,25.2819992601871,0.99,0.16,11,32.55
2022-06-03 10:56:56.788,25.3970056772232,1.24,2.35,11,34.66
2022-06-03 10:56:56.902,25.5110062658787,0.78,-2.44,9,57.06
2022-06-03 10:56:57.017,25.6260026246309,0.76,-0.64,5,30.61
2022-06-03 10:56:57.133,25.7420048117638,0.72,-0.8,0,17.25
2022-06-03 10:56:57.247,25.8560054004192,0.7,-0.84,-4,-1.99
2022-06-03 10:56:57.362,25.9710017591715,0.74,-0.41,-3,-17.56
2022-06-03 10:56:57.477,26.0860081762075,0.55,-2.09,0,1.29
2022-06-03 10:56:57.591,26.200008764863,1.12,3.32,4,-14.35
2022-06-03 10:56:57.705,26.3139992952347,1.07,0.41,9,23.11
2022-06-03 10:56:57.821,26.4300014823675,1.1,0.84,11,37.24
2022-06-03 10:56:57.935,26.544002071023,0.81,-1.62,10,54.28
2022-06-03 10:56:58.049,26.6580026596785,0.69,-1.3,8,40
2022-06-03 10:56:58.160,26.7690058797598,0.26,-4.26,4,47.53
2022-06-03 10:56:58.276,26.8850080668926,0.47,-0.67,-2,7.31
2022-06-03 10:56:58.389,26.9980028271675,0.17,-3.97,-4,4.17
2022-06-03 10:56:58.504,27.1129991859198,0.12,-3.09,0,-6.53
2022-06-03 10:56:58.619,27.2280056029558,0.43,-0.44,1,3.92
2022-06-03 10:56:58.734,27.3430019617081,0.87,1.87,6,-4.35
2022-06-03 10:56:58.848,27.4570025503635,1.01,0.98,10,26.75
2022-06-03 10:56:58.963,27.5720089673996,0.86,-0.79,10,48.33
2022-06-03 10:56:59.078,27.6870053261518,0.71,-1.35,9,42.66
2022-06-03 10:56:59.192,27.8010059148073,0.73,-0.51,5,33.72
2022-06-03 10:56:59.308,27.9170081019402,0.43,-3.04,0,29.68
2022-06-03 10:56:59.422,28.0310086905956,0.51,-1.14,-2,-2.21
2022-06-03 10:56:59.536,28.1449992209673,0.74,0.42,0,-10.84
2022-06-03 10:56:59.651,28.2600056380033,0.76,-0.46,2,8
2022-06-03 10:56:59.761,28.3700030297041,1.1,2.23,4,0.8
2022-06-03 10:56:59.876,28.4849993884563,1.15,1.13,8,17.22
2022-06-03 10:56:59.991,28.6000058054924,1.63,4.83,9,14.92
2022-06-03 10:57:00.106,28.7150021642447,0.99,-2.49,10,56.45
2022-06-03 10:57:00.221,28.8300085812807,1.05,0.79,6,30.99
2022-06-03 10:57:00.335,28.9439991116524,0.79,-1.52,3,26.37
2022-06-03 10:57:00.449,29.0579997003078,0.9,0.47,0,4.35
2022-06-03 10:57:00.564,29.1730061173439,0.77,-1.05,0,3.71
2022-06-03 10:57:00.679,29.2880024760962,0.85,0.15,0,-0.29
2022-06-03 10:57:00.794,29.4030088931322,0.64,-1.86,3,11.38
2022-06-03 10:57:00.909,29.5180052518845,0.99,1.88,6,5.19
2022-06-03 10:57:01.023,29.6320058405399,1.22,2.19,8,19.72
2022-06-03 10:57:01.138,29.7470021992922,1.44,2.95,8,22.71
2022-06-03 10:57:01.253,29.8620086163282,0.93,-2.11,7,46.87
2022-06-03 10:57:01.363,29.972006008029,0.84,-0.66,5,25.08
2022-06-03 10:57:01.478,30.0870023667812,0.78,-0.67,2,19.03
2022-06-03 10:57:01.593,30.2020087838173,0.85,0.08,0,3.38
2022-06-03 10:57:01.707,30.315999314189,0.88,0.06,0,-1.4
2022-06-03 10:57:01.822,30.431005731225,1.03,1.15,2,-4.28
